Location: Tuebingen alte Sternwarte
(48.5376°N, 9.0555°E)
Time: 03:08:28
(UTC+01:00)

Tiangong 1 - Visible Passes

Search period start: 25 February 2018 00:00
Search period end: 07 March 2018 00:00
Orbit: 245 x 266 km, 42.8° (Epoch: 24 February)

Date Brightness Start Highest point End Pass type
(mag) Time Alt. Az. Time Alt. Az. Time Alt. Az.
04 Mar 3.5 20:05:16 10° SW 20:05:19 10° SW 20:05:19 10° SW visible
05 Mar 2.9 19:55:37 10° SW 19:56:21 15° SSW 19:56:21 15° SSW visible
06 Mar 2.4 19:45:44 10° SW 19:47:03 18° SSW 19:47:03 18° SSW visible
